Theta_e
329 330 336 337 339 331 333 337 335 338 336 332 333 335 337 337 337 336 339 337 330 330 331 333 334 335 335 335 334 334 335 337 340 340 340 339 338 339 339 336 335 336 337 335 335 337 341 341 341
334 335 337 335 335 332 333 332 338 337 334 335 336 336 338 340 343 342 341 339 334 337 337 337 337 338 336 335 335 336 337 340 340 340 340 336 338 332 326 326 326 326 328 332 334 335 338 338 338
339 337 337 338 340 333 333 334 336 335 335 338 339 336 336 337 343 341 342 341 337 336 340 340 340 339 336 338 342 342 340 340 338 338 337 335 329 321 320 320 324 324 324 326 328 329 332 333 333
338 336 335 341 346 342 331 335 337 337 336 336 337 340 338 338 339 341 343 339 339 337 340 340 340 337 338 339 338 340 338 338 337 337 334 331 326 321 319 320 324 324 325 325 325 326 327 328 329
335 336 342 343 343 344 339 337 336 339 337 337 338 341 340 340 340 343 342 342 340 340 340 338 338 338 337 337 336 336 334 332 333 332 331 331 324 321 320 319 325 325 325 326 326 327 327 327 327
334 337 344 343 343 340 343 340 339 337 336 340 340 339 336 341 343 343 340 342 341 337 340 338 337 336 335 334 330 328 327 326 325 324 323 324 327 328 322 321 324 326 326 326 326 327 326 322 321
336 339 345 342 341 343 343 341 341 341 341 342 338 344 330 326 342 329 332 341 334 336 338 340 339 336 333 328 328 327 325 323 321 322 323 327 328 325 323 325 326 327 326 325 326 325 323 321 320
334 339 343 341 341 342 340 342 341 342 343 338 340 343 337 322 324 325 326 327 328 329 330 333 338 335 330 328 329 328 323 321 319 320 321 321 322 323 324 325 326 325 326 326 326 326 320 319 320
332 339 343 342 340 339 340 344 341 338 341 339 336 328 325 321 325 326 326 326 327 328 328 328 332 335 329 329 334 330 322 321 319 321 322 321 321 322 321 323 321 323 320 321 321 320 320 320 320
335 334 338 340 339 338 340 340 341 341 341 336 324 323 322 321 321 322 323 325 326 326 325 327 330 336 333 332 333 326 322 321 319 319 321 316 317 321 320 320 319 319 320 320 319 319 319 320 320
333 337 335 339 337 336 340 341 342 340 343 331 325 323 322 322 321 320 321 324 325 325 323 324 326 332 335 329 328 324 322 321 321 320 318 317 320 321 320 319 319 320 319 319 318 318 316 319 320
336 333 336 337 338 336 342 341 342 341 341 329 324 323 322 322 321 320 320 322 324 323 321 324 325 325 324 323 322 323 322 322 321 320 319 318 319 321 319 319 319 319 318 318 316 313 316 318 319
336 337 334 337 335 336 339 341 342 341 335 326 325 324 323 321 321 322 322 321 321 322 322 322 323 324 323 323 322 322 322 322 320 320 318 318 319 320 319 318 318 319 318 316 313 313 316 317 318
336 335 335 335 336 339 342 343 342 340 328 326 326 325 323 322 322 323 323 322 320 321 322 321 322 322 323 322 321 321 322 322 321 319 318 318 318 320 319 318 318 318 317 315 312 313 316 317 317
337 337 335 338 340 343 342 347 346 338 328 327 327 326 325 324 324 325 325 323 318 319 321 322 321 321 322 322 320 321 321 322 321 319 318 318 317 317 318 316 317 317 316 313 312 312 314 315 314
340 337 338 339 340 341 341 346 345 340 329 329 328 327 326 325 325 326 326 324 321 317 321 322 322 321 321 321 321 321 321 321 320 320 319 317 316 315 316 315 317 316 314 311 311 312 312 312 312
333 337 342 340 337 342 340 342 342 342 338 331 329 327 327 327 327 327 326 325 324 320 318 320 321 322 322 321 322 322 321 322 320 320 320 317 314 315 315 315 316 315 312 312 311 312 312 312 313
334 339 338 341 338 342 344 340 345 344 343 341 333 330 328 328 328 328 327 326 326 323 320 319 318 321 322 322 322 322 321 321 320 320 320 319 316 315 316 315 315 315 311 311 312 312 311 312 313
333 338 338 337 338 340 341 341 341 345 344 344 341 331 329 329 329 329 328 327 327 325 323 320 317 321 322 321 322 322 321 322 321 320 320 319 318 317 315 316 314 314 312 312 311 311 312 312 312
337 339 336 336 337 338 336 338 342 344 345 344 343 339 332 329 329 330 328 327 327 326 325 323 317 321 322 321 320 321 321 322 321 321 320 319 318 317 316 315 314 314 313 313 312 311 312 312 312
334 333 335 334 339 340 336 335 346 344 343 342 339 339 337 331 331 331 329 328 327 326 326 325 320 320 321 322 322 322 323 323 322 321 320 320 318 318 316 315 314 313 314 315 313 312 312 312 313
331 329 335 338 335 338 333 335 337 346 346 345 342 339 339 335 332 331 330 328 327 327 327 327 323 317 319 322 323 322 323 323 321 321 320 321 319 318 316 315 315 315 315 315 315 313 313 312 313
332 332 335 337 337 336 338 335 338 343 342 338 340 341 337 338 334 331 330 329 328 328 329 328 325 320 319 322 323 322 322 322 322 321 322 320 319 318 317 316 315 316 316 315 314 315 314 313 312
333 336 328 334 335 340 338 338 338 340 336 337 336 335 336 336 336 333 331 330 330 330 330 328 325 322 321 319 323 322 322 321 321 321 321 321 319 318 317 317 316 316 316 315 315 315 314 314 314
329 328 332 335 336 339 338 342 335 335 336 336 335 331 331 334 335 334 330 331 330 329 330 328 325 323 321 320 320 320 320 320 321 321 322 321 320 319 319 318 317 317 316 315 315 314 314 314 315
333 331 333 340 337 335 338 342 335 334 333 332 332 331 331 334 334 334 332 332 331 331 335 327 324 324 322 322 321 322 322 320 321 321 322 319 320 320 319 319 318 318 317 316 315 314 314 314 313
334 334 330 332 332 331 331 334 330 336 335 333 334 334 333 332 334 335 334 333 330 332 331 331 325 325 324 323 322 322 322 322 320 320 321 320 319 319 318 318 318 318 318 318 317 316 315 315 315
331 331 332 329 335 338 334 335 334 334 336 336 335 334 333 332 332 333 332 333 330 333 335 332 328 326 325 324 323 322 322 322 321 321 320 320 320 320 320 319 318 319 319 318 318 318 318 316 316
333 334 335 330 331 336 340 333 327 334 332 334 334 332 332 332 334 333 333 332 331 332 331 331 329 328 327 325 324 323 322 322 322 322 321 321 321 321 321 320 320 320 319 319 319 319 318 318 318
331 332 330 331 334 335 333 334 334 333 332 333 334 334 334 335 334 334 334 334 332 332 331 331 331 329 328 326 325 323 322 322 322 322 321 322 321 321 321 321 321 320 320 319 319 319 319 319 319
Wind_Speed
10 10 9 4 4 6 3 5 2 2 4 3 6 4 8 4 2 2 4 14 8 9 7 6 4 2 3 3 5 6 6 6 6 6 7 7 8 9 10 10 10 9 9 9 10 11 10 10 11
9 10 4 3 5 4 4 5 4 4 9 10 11 5 7 3 3 4 8 10 10 6 6 5 4 3 3 4 5 5 5 5 5 6 6 7 9 10 12 13 13 12 10 8 7 10 11 11 11
8 6 4 4 3 3 1 2 8 3 4 1 4 5 3 3 2 13 3 13 8 5 6 6 5 4 4 4 5 6 6 6 7 7 8 8 10 12 13 15 15 14 12 9 9 9 10 11 12
3 3 4 5 3 3 4 3 5 7 6 6 6 5 3 4 10 9 15 11 5 5 6 7 6 6 6 5 5 6 7 7 7 9 8 8 8 11 11 13 12 14 14 14 12 12 11 11 12
5 4 6 4 6 4 6 2 5 4 3 5 3 5 3 5 13 15 10 7 11 7 6 7 6 7 6 5 6 7 8 9 10 9 7 4 7 9 9 9 9 11 12 12 13 13 11 12 13
4 3 5 4 3 4 2 2 3 4 5 6 7 6 4 9 15 12 10 11 11 7 8 6 6 6 5 6 8 11 11 9 9 7 10 4 3 9 9 6 8 10 11 12 12 12 10 14 11
5 4 4 4 1 3 4 1 1 3 4 2 2 4 2 13 13 14 14 13 10 10 8 6 6 7 6 9 11 10 9 10 10 6 8 9 5 5 7 6 8 9 10 10 12 11 11 13 12
4 4 3 4 5 4 3 3 1 3 4 1 2 5 5 7 21 19 18 17 15 13 10 6 6 7 9 11 9 8 7 10 10 7 8 8 7 9 8 12 10 11 11 11 11 11 10 11 10
3 4 2 6 6 4 3 3 1 2 3 3 4 4 16 22 23 21 17 14 12 12 11 8 3 10 10 9 9 6 6 10 13 8 8 8 6 7 9 10 11 11 11 12 10 11 11 10 8
4 4 8 5 5 4 6 4 7 4 2 5 10 15 21 21 21 20 17 13 10 8 8 6 6 13 10 7 10 6 6 10 13 9 8 10 6 7 9 10 12 10 11 10 12 13 12 12 11
3 4 5 5 5 8 6 3 3 9 3 11 17 11 12 16 14 15 13 11 9 6 4 4 8 9 10 9 9 8 5 9 10 11 10 12 9 8 8 11 11 9 10 12 15 16 13 11 10
3 1 6 8 8 7 9 4 2 2 4 9 11 17 10 10 12 15 13 11 9 7 3 2 6 9 10 8 10 8 6 5 7 9 10 12 8 8 8 12 11 10 12 15 17 15 11 7 8
3 1 4 5 10 7 7 6 6 5 8 13 15 12 10 11 14 11 12 10 9 8 6 4 4 6 6 8 6 4 5 4 5 7 9 10 8 7 8 11 9 10 14 18 19 14 10 8 7
0 2 5 3 6 7 10 3 6 4 13 14 12 11 10 14 18 14 13 11 9 7 7 6 6 6 7 8 4 6 7 4 2 6 6 7 7 5 6 9 7 10 14 18 18 14 10 9 9
3 4 4 3 5 5 7 2 6 9 13 14 11 10 9 11 18 20 17 13 9 10 9 9 7 8 6 6 3 6 7 4 1 4 6 7 7 5 7 9 8 11 15 18 16 13 10 10 12
4 4 4 5 7 6 5 8 8 11 14 14 12 10 9 8 17 19 18 15 12 10 11 12 9 8 10 8 5 7 8 6 4 1 5 7 7 7 7 9 8 12 16 16 15 17 16 14 13
6 2 3 2 7 5 6 6 9 14 14 14 12 10 9 6 11 20 22 19 15 11 11 13 12 11 9 10 8 9 8 10 6 2 4 7 7 8 8 9 8 11 16 14 16 16 18 20 13
5 2 4 5 6 7 9 13 6 18 17 16 12 8 10 12 16 24 26 22 17 14 12 11 12 13 10 8 13 13 11 13 10 5 1 4 5 7 6 7 7 10 13 15 16 16 17 22 13
4 2 5 2 7 7 10 11 7 17 16 13 12 12 12 15 14 23 27 24 20 17 15 13 14 15 11 9 8 12 10 14 11 8 3 2 2 4 5 6 6 8 11 15 16 16 17 20 18
4 2 5 5 3 2 1 3 7 15 21 14 9 10 14 9 8 17 23 27 27 23 19 15 14 16 13 12 10 8 7 7 13 10 8 6 4 3 5 5 6 6 9 11 14 16 15 13 17
3 6 5 4 2 3 1 4 6 2 3 7 6 8 12 14 15 14 23 31 30 27 22 17 14 16 13 11 9 9 6 5 8 11 10 10 8 4 4 4 4 6 6 9 11 13 14 12 11
4 8 4 4 3 1 3 4 6 3 6 8 9 14 13 17 17 16 24 26 31 30 23 21 17 16 16 14 11 11 8 7 10 9 8 9 12 7 4 4 3 4 6 7 8 8 10 10 9
2 8 4 3 3 2 4 3 7 1 4 7 12 14 11 15 18 19 26 31 28 29 26 25 21 18 15 15 13 11 9 7 7 5 6 6 12 9 6 4 4 3 4 7 7 7 7 8 8
8 6 6 4 3 4 3 3 5 3 4 5 5 6 9 14 18 17 25 24 27 32 27 28 25 21 17 16 14 12 10 9 9 6 3 6 11 11 8 7 6 5 5 5 6 7 8 9 10
7 5 3 5 5 5 2 1 8 6 8 8 7 11 14 9 11 13 15 21 20 26 24 30 28 24 18 15 14 13 10 8 7 8 10 9 12 13 12 11 10 9 7 8 8 9 10 10 12
2 4 5 4 2 5 3 3 5 4 7 5 6 7 7 3 7 8 10 21 27 21 10 28 28 24 19 15 14 13 11 9 9 8 8 11 11 11 10 14 13 14 12 11 13 13 14 13 14
3 2 5 5 2 3 3 6 9 2 5 8 6 7 8 8 8 8 13 22 30 37 27 28 21 22 18 15 12 15 15 12 9 10 11 10 11 12 13 13 16 14 16 17 18 19 20 19 19
2 3 3 3 0 3 5 4 5 4 2 1 4 7 10 9 11 3 10 21 29 38 28 24 23 22 19 19 16 17 18 14 12 12 14 14 13 14 16 16 16 16 17 18 19 22 22 23 24
2 2 6 4 4 4 2 6 5 5 2 6 5 8 8 9 8 5 5 13 23 22 21 22 12 17 19 22 20 21 20 19 16 18 18 18 17 18 19 19 18 18 18 19 21 22 23 24 26
2 4 5 5 4 1 3 6 3 4 4 6 3 6 6 7 7 5 2 8 13 20 17 18 16 16 19 23 24 23 23 21 19 21 20 17 20 21 22 22 22 22 22 22 23 26 27 28 29
Wind_Direction
155 146 138 107 65 67 3 317 76 173 50 359 80 89 96 22 76 188 315 164 160 136 140 151 153 126 94 72 58 51 43 40 35 27 31 33 37 36 36 30 21 14 1 352 346 341 336 330 328
168 146 82 65 71 48 317 336 47 79 135 119 89 74 61 53 88 116 135 168 160 115 133 139 132 116 90 73 58 51 44 34 32 38 46 43 53 51 41 33 17 3 355 352 349 338 345 343 333
180 248 72 77 81 101 198 14 133 110 170 97 95 41 62 106 76 160 199 164 155 116 150 126 111 100 78 58 52 41 40 24 27 36 46 59 63 50 43 34 24 17 11 359 349 344 340 336 327
216 30 45 72 49 255 187 194 145 118 85 98 119 67 34 83 165 181 151 149 137 107 104 100 89 76 67 42 21 40 40 45 51 56 59 60 59 44 36 35 30 30 32 32 25 14 2 351 334
31 58 56 50 10 5 42 6 315 74 82 67 118 122 72 25 117 128 129 135 126 100 101 85 81 78 70 50 51 57 58 64 57 45 33 34 47 32 22 21 20 19 19 16 11 6 360 6 3
42 77 62 46 8 336 13 31 7 113 110 81 96 106 30 118 107 105 107 121 109 91 97 89 86 87 83 89 86 83 68 49 32 27 23 19 62 12 353 348 355 4 8 6 8 14 19 9 4
97 74 113 158 27 309 181 268 250 244 148 98 146 77 73 74 109 111 113 126 111 100 104 101 107 117 117 113 103 89 62 42 29 35 66 77 59 17 15 1 343 7 17 10 10 14 12 5 8
99 83 105 196 176 239 194 137 247 316 11 322 22 140 159 122 121 115 107 104 97 94 88 90 132 144 131 120 115 97 69 48 40 52 75 61 48 53 50 50 40 17 10 5 11 10 3 352 359
116 70 169 192 162 221 126 123 4 305 112 27 13 100 129 132 123 112 101 94 89 82 74 61 123 147 135 127 127 122 82 56 33 59 53 25 25 40 42 45 17 11 3 12 18 12 7 354 355
83 106 209 184 168 172 156 153 175 130 108 56 85 98 128 144 144 128 127 123 113 84 54 60 86 163 149 155 166 155 93 64 44 41 26 21 19 36 47 21 5 11 25 20 11 2 358 7 9
156 180 183 202 161 135 145 186 214 137 212 173 153 146 141 140 133 126 121 117 108 101 58 76 97 130 161 171 168 167 104 67 47 39 34 26 42 47 32 17 19 34 22 6 357 349 342 356 12
119 223 184 158 162 144 162 149 141 212 208 144 151 146 140 154 155 142 133 135 149 148 109 94 134 130 140 145 151 161 118 67 52 35 28 23 33 43 30 20 29 30 16 6 1 358 352 346 10
56 176 176 182 150 153 134 195 166 220 129 127 138 152 162 170 160 153 149 156 160 167 154 152 172 173 143 150 124 140 151 110 64 30 22 20 31 42 22 13 21 15 6 3 360 0 1 1 1
274 63 91 121 157 146 168 201 134 179 141 150 163 174 180 174 168 160 168 172 183 185 184 182 191 178 157 156 134 151 164 147 70 17 22 26 28 44 16 15 25 11 5 359 354 1 8 12 3
54 62 27 156 170 169 117 302 229 151 156 164 182 190 192 190 176 180 186 183 185 198 201 190 177 184 167 167 190 174 177 186 175 12 28 21 18 21 12 9 19 13 3 355 357 1 359 3 4
101 65 157 213 189 190 133 251 208 169 164 183 191 204 196 190 193 193 191 191 187 194 204 203 193 183 187 190 190 195 195 210 198 32 37 26 24 26 17 23 26 15 5 6 11 9 10 9 4
36 219 237 219 206 149 207 260 188 179 187 197 199 200 194 191 195 204 201 198 193 196 204 210 206 201 198 208 220 233 219 216 211 212 37 29 35 36 30 24 23 15 8 22 20 21 19 16 22
241 232 242 217 198 175 204 253 180 190 197 198 203 209 200 198 208 202 204 201 201 201 205 215 217 208 215 238 239 231 227 213 212 216 345 18 39 36 21 24 28 20 23 28 27 21 25 22 27
169 160 263 236 214 161 220 242 220 200 212 206 200 205 209 215 208 198 205 203 204 206 207 214 209 204 220 219 200 207 213 211 216 219 249 286 8 17 8 10 19 30 27 24 23 20 22 25 27
161 197 254 310 40 112 251 310 311 197 212 207 217 216 222 212 183 194 201 206 205 207 210 214 217 211 218 223 218 202 211 214 229 226 232 235 244 322 347 352 12 24 27 28 27 26 20 24 31
210 185 227 179 88 56 340 312 330 332 213 201 215 221 214 206 203 189 199 204 208 209 207 216 225 219 219 218 226 216 244 236 210 223 241 242 242 248 319 335 7 19 15 21 22 21 20 15 32
239 198 161 148 109 247 32 287 289 321 300 247 226 228 217 214 206 198 199 197 205 210 207 217 221 217 217 219 225 231 240 204 214 236 258 257 233 239 289 314 336 9 12 8 10 6 8 9 11
272 69 56 91 120 79 357 55 274 55 274 246 253 259 234 221 210 203 202 201 194 206 211 215 217 216 208 210 221 220 209 198 198 233 277 260 213 228 253 276 274 319 332 344 346 339 337 342 345
153 76 54 47 59 26 282 106 286 265 238 301 263 293 262 220 218 210 203 193 185 205 212 217 214 215 208 209 215 221 224 225 235 240 250 238 222 231 248 260 270 279 298 307 343 346 327 313 309
51 66 5 7 1 226 28 44 242 259 242 234 328 318 315 228 218 199 183 180 176 197 216 223 216 215 208 207 210 220 226 222 226 235 272 250 233 244 253 261 270 272 295 291 299 318 318 308 299
71 128 138 248 252 272 6 248 269 241 335 44 42 286 317 286 224 212 190 161 165 168 247 258 228 218 214 209 214 220 229 234 244 260 249 268 257 263 271 262 269 273 278 289 285 283 293 300 297
170 73 164 108 16 38 261 289 315 8 28 31 321 352 336 310 243 217 185 155 152 172 206 221 229 230 228 234 233 235 235 238 250 249 255 265 267 278 282 275 274 282 281 277 281 286 289 289 291
129 122 41 21 351 305 294 289 241 303 189 15 3 325 309 324 296 248 152 163 163 187 204 219 220 226 229 238 239 241 241 243 248 253 255 261 272 276 276 280 282 285 283 286 284 286 286 287 287
344 36 56 108 125 171 275 277 212 272 219 199 255 291 303 299 290 286 161 131 170 181 197 221 226 231 235 240 242 243 244 245 250 256 262 265 273 276 277 276 281 285 287 287 283 283 286 285 286
160 157 135 123 240 222 153 276 18 99 121 175 233 291 317 289 300 284 66 130 162 176 196 216 237 247 244 242 247 248 248 249 257 259 268 277 276 278 281 279 278 284 287 290 288 287 287 285 283